User: anonymous   Login
Location: ????????
(55.3939°N, 37.4780°E)
Time: 19:35:43
(UTC+00:00)
Language:

Cosmos 2298 Rocket - Orbit

View from above orbital plane
View from above orbital plane
View from above satellite
View from above satellite

Ground track
Ground track

The orbit is defined by the following mean orbital elements,

1 23432U          26162.47774670 +.00000000 +00000-0 +56203-4 0 00006
2 23432  74.0327  54.9951 0005771 199.6962 337.3948 14.34463446    00
Epoch (UTC): 11 June 2026 11:27:57
Eccentricity: 0.0005771
inclination: 74.0327°
perigee height: 773 km
apogee height: 781 km
right ascension of ascending node: 54.9951°
argument of perigee: 199.6962°
revolutions per day: 14.34463446
mean anomaly at epoch: 337.3948°

The dashed part of the orbit path shows where the satellite is in the earth's shadow,  

DLR